{"data":{"norad_id":65198,"epoch":"2026-05-25T01:36:00.599040Z","epoch_age_seconds":72502,"freshness":"FRESH","line1":"1 65198U 25176A   26145.06667360  .00011439  00000+0  39768-3 0  9995","line2":"2 65198  53.1579 160.8318 0001247  97.9321 262.1822 15.30205261 44773","mean_motion":15.30205261,"eccentricity":0.0001247,"inclination_deg":53.1579,"raan_deg":160.8318,"arg_perigee_deg":97.9321,"mean_anomaly_deg":262.1822,"bstar":0.00039768,"rev_number":4477,"period_min":94.105022162775,"perigee_km":474.34475002241,"apogee_km":476.05397211086,"semimajor_km":6853.3363610666,"source":"CELESTRAK","updated_at":"2026-05-25T13:38:20.717371Z"}}